Location: Winthrop
(48.4780°N, 120.1850°W)
Time: 03:28:41
(UTC-08:00)

Vanguard 1 Rocket - Pass Details

Date: 03 December 2023
Orbit: 654 x 4218 km, 34.3° (Epoch: 24 February)

Event Time Altitude Azimuth Distance (km) Brightness Sun altitude
Rises 10:56:39 0° 268° (W) 5,373 11.2 18.4°
Reaches altitude 10° 11:02:51 10° 247° (WSW) 3,574 10.6 18.6°
Maximum altitude 11:06:38 14° 220° (SW) 2,834 10.6 18.7°
Drops below altitude 10° 11:09:41 10° 192° (SSW) 2,741 11.4 18.8°
Sets 11:13:15 0° 164° (SSE) 3,318 11.9 18.9°
